Flag for U.S.A. Weather past 2 weeks in Lexington, North Carolina, U.S.A.

Now
78 °F

Scattered clouds.


Feels Like: 81 °F
Forecast: 67 / 88 °F
Wind: No wind

Location: Davidson County Airport

Current Time: Aug 20, 2014 at 10:38:13 AM

Latest Report: Aug 20, 2014 at 10:15 AM


Visibility: 10 mi

Pressure: 30.03 "Hg

Humidity: 86%

Dew point: 73 °F

Location of LexingtonLocation

Historic Weather in Lexington — Graph

°F

Lexington temperature yesterday

Maximum temperature yesterday: 85 °F (at 3:15 PM)
Minimum temperature yesterday: 66 °F (at 6:15 AM)
Average temperature yesterday: 75 °F

Past Weeks' High & Low Weather Summary

 TemperatureHumidityPressure
High86 °F (Aug 17, 4:15 PM)100% (Aug 5, 10:55 PM)30.15 "Hg (Aug 5, 10:55 PM)
Low56 °F (Aug 14, 4:35 AM)46% (Aug 6, 2:15 PM)29.79 "Hg (Aug 12, 5:55 PM)
Average73 °F86%29.99 "Hg
* Reported Aug 5 9:15 AM — Aug 20 9:15 AM, Lexington, Weather by CustomWeather, © 2014

Note: Actual official high and low records may vary slightly from our data, if they occured in-between our weather recording intervals... More about our weather records

Advertising

Lexington weather history for previous 24 hours

 ConditionsComfort  
Time TempWeatherWind HumidityBarometerVisibility
9:15 AM
Aug 20
75 °FSunny.No wind97%30.00 "Hg10 mi
8:55 AM74 °FSunny.No wind100%29.99 "Hg10 mi
8:35 AM72 °FScattered clouds.No wind100%29.99 "Hg7 mi
8:15 AM71 °FFog.No wind100%29.99 "Hg5 mi
7:55 AM70 °FFog.No wind100%29.99 "Hg5 mi
7:15 AM68 °FFog.No wind100%29.97 "Hg2 mi
6:55 AM67 °FFog.No wind100%29.96 "Hg3 mi
6:35 AM68 °FFog.No wind100%29.96 "Hg4 mi
6:15 AM68 °FFog.No wind100%29.95 "Hg4 mi
5:55 AM68 °FFog.No wind100%29.94 "Hg3 mi
5:35 AM69 °FFog.No wind100%29.93 "Hg4 mi
5:15 AM69 °FFog.No wind100%29.93 "Hg5 mi
4:55 AM69 °FFog.No wind100%29.92 "Hg5 mi
4:35 AM69 °FFog.No wind100%29.92 "Hg5 mi
4:15 AM69 °FFog.No wind100%29.92 "Hg5 mi
3:55 AM69 °FFog.No wind100%29.92 "Hg3 mi
3:35 AM69 °FFog.No wind100%29.92 "Hg4 mi
3:15 AM70 °FFog.No wind100%29.92 "Hg5 mi
2:55 AM70 °FFog.No wind100%29.92 "Hg5 mi
2:15 AM70 °FFog.No wind100%29.91 "Hg4 mi
1:55 AM70 °FFog.No wind100%29.91 "Hg3 mi
1:35 AM70 °FFog.No wind100%29.91 "Hg4 mi
1:15 AM71 °FFog.No wind100%29.91 "Hg5 mi
12:55 AM70 °FFog.No wind100%29.91 "Hg3 mi
12:35 AM70 °FFog.No wind100%29.90 "Hg3 mi
12:15 AM71 °FFog.No wind100%29.91 "Hg5 mi
11:55 PM
Aug 19
71 °FFog.No wind100%29.92 "Hg5 mi
11:35 PM71 °FFog.No wind100%29.91 "Hg5 mi
11:15 PM72 °FFog.No wind100%29.91 "Hg5 mi
11:00 PM72 °FClear.No wind100%29.91 "Hg7 mi
10:35 PM72 °FClear.No wind100%29.91 "Hg7 mi
10:15 PM72 °FClear.No wind100%29.91 "Hg7 mi
9:55 PM72 °FClear.No wind100%29.90 "Hg10 mi
9:35 PM74 °FClear.No wind93%29.90 "Hg10 mi
9:15 PM75 °FClear.No wind87%29.89 "Hg10 mi
8:55 PM75 °FScattered clouds.No wind89%29.90 "Hg10 mi
8:15 PM78 °FScattered clouds.No wind79%29.88 "Hg10 mi
7:55 PM75 °FScattered clouds.No wind88%29.87 "Hg10 mi
7:35 PM77 °FSunny.No wind82%29.86 "Hg10 mi
7:15 PM78 °FSunny.No wind79%29.85 "Hg10 mi
6:55 PM80 °FSunny.No wind76%29.84 "Hg10 mi
6:35 PM81 °FSunny.No wind74%29.84 "Hg10 mi
6:15 PM83 °FSunny.No wind68%29.84 "Hg10 mi
5:55 PM85 °FSunny.No wind60%29.84 "Hg10 mi
5:35 PM84 °FSunny.No wind60%29.84 "Hg10 mi
4:55 PM80 °FSunny.No wind82%29.85 "Hg10 mi
4:35 PM82 °FSunny.No wind73%29.84 "Hg10 mi
4:15 PM85 °FSunny.No wind60%29.83 "Hg10 mi
3:55 PM85 °FSunny.No wind62%29.83 "Hg10 mi
3:35 PM85 °FSunny.3 mph59%29.84 "Hg10 mi
3:15 PM85 °FSunny.No wind60%29.84 "Hg10 mi
2:55 PM85 °FSunny.3 mph57%29.85 "Hg10 mi
2:35 PM85 °FScattered clouds.No wind59%29.86 "Hg10 mi
2:15 PM85 °FScattered clouds.No wind59%29.86 "Hg10 mi
1:55 PM84 °FScattered clouds.No wind62%29.87 "Hg10 mi
1:35 PM82 °FScattered clouds.No wind68%29.87 "Hg10 mi
1:15 PM84 °FScattered clouds.3 mph59%29.88 "Hg10 mi
12:55 PM82 °FBroken clouds.No wind64%29.88 "Hg10 mi
12:35 PM83 °FPartly sunny.No wind61%29.88 "Hg10 mi
12:15 PM83 °FBroken clouds.No wind65%29.88 "Hg10 mi
11:55 AM82 °FScattered clouds.No wind66%29.88 "Hg10 mi
11:35 AM81 °FSunny.3 mph68%29.88 "Hg10 mi
11:15 AM81 °FSunny.No wind70%29.88 "Hg10 mi
10:55 AM80 °FSunny.No wind73%29.88 "Hg10 mi
10:35 AM79 °FSunny.No wind76%29.88 "Hg10 mi
10:15 AM78 °FSunny.No wind81%29.88 "Hg10 mi
Weather by CustomWeather, © 2014

See weather overviewHow to use our weather pages